User: anonymous   Login
Location: Bowman Observatory
(41.0326°N, 73.6210°W)
Time: 16:05:03
(UTC-04:00)
Language:

Cosmos 2298 Rocket - Orbit

View from above orbital plane
View from above orbital plane
View from above satellite
View from above satellite

Ground track
Ground track

The orbit data is extracted from the following two-line orbital elements,

1 23432U 94083B   16148.52910602  .00000020  00000-0  16751-4 0  9999
2 23432  74.0327 283.1847 0006076 231.6772 197.4373 14.33443559121042
Epoch (UTC): 27 May 2016 12:41:54
Eccentricity: 0.0006076
inclination: 74.0327°
perigee height: 776 km
apogee height: 784 km
right ascension of ascending node: 283.1847°
argument of perigee: 231.6772°
revolutions per day: 14.33443559
mean anomaly at epoch: 197.4373°
orbit number at epoch: 12104

The dashed part of the orbit path shows where the satellite is in the earth's shadow,  

DLR